PBO Station Position Time Series. Reference Frame : NAM14
Format Version,1.1.1
4-character ID,P414
Station name,RidgefieldWA2006
Begin Date, 2006-05-12
End Date, 2023-06-26
Release Date, 2023-06-27
Reference position, 45.8348685043 North Latitude, -122.6928377565 East Longitude, 63.85170 meters elevation,
Date, North (mm), East (mm), Vertical (mm), North Std. Deviation (mm), East Std. Deviation (mm),              Vertical Std. Deviation (mm), Quality,
2006-05-12,0.00, 0.00, 0.00, 2.20, 1.55, 7.09, repro,
2006-05-13,0.68, -0.43, -2.41, 2.19, 1.55, 7.07, repro,
2006-05-14,0.76, 0.19, -4.96, 2.19, 1.55, 7.10, repro,
2006-05-15,-0.28, -0.47, 0.62, 2.18, 1.55, 7.08, repro,
2006-05-16,-0.02, -0.20, -2.31, 2.19, 1.57, 7.16, repro,
2006-05-17,-1.18, 0.03, 0.16, 2.21, 1.57, 7.21, repro,
2006-05-18,-1.14, 0.37, -1.95, 2.21, 1.55, 7.10, repro,
2006-05-19,-0.07, 0.25, 3.96, 2.26, 1.59, 7.20, repro,
2006-05-20,-0.41, -0.61, 5.62, 2.27, 1.58, 7.21, repro,
2006-05-21,-0.36, 0.80, 3.01, 2.26, 1.57, 7.15, repro,
2006-05-22,-0.40, 0.65, 17.46, 2.27, 1.62, 7.32, repro,
2006-05-23,-2.09, -0.27, 8.81, 2.25, 1.57, 7.16, repro,
2006-05-24,-0.37, 2.14, 2.22, 2.27, 1.63, 7.38, repro,
2006-05-25,0.70, -0.80, -1.07, 2.33, 1.63, 7.45, repro,
2006-05-26,-0.34, -0.73, 1.12, 2.31, 1.62, 7.38, repro,
2006-05-27,0.76, -0.58, 5.02, 2.26, 1.58, 7.17, repro,
2006-05-28,0.06, 0.42, 3.53, 2.24, 1.57, 7.12, repro,
2006-05-29,-0.18, 0.43, -4.01, 2.25, 1.58, 7.20, repro,
2006-05-30,-1.75, 0.08, -1.59, 2.31, 1.62, 7.37, repro,
2006-05-31,0.27, -0.70, 1.13, 2.26, 1.58, 7.20, repro,
2006-06-01,-0.87, 0.35, 5.60, 2.31, 1.61, 7.34, repro,
2006-06-02,1.94, -0.50, -2.84, 2.45, 1.66, 7.67, repro,
2006-06-03,-0.87, -0.26, -1.10, 2.35, 1.63, 7.47, repro,
2006-06-04,-0.38, 0.37, 2.50, 2.32, 1.63, 7.44, repro,
2006-06-05,-0.82, -0.39, 3.22, 2.32, 1.62, 7.37, repro,
2006-06-06,-0.70, 0.33, 4.42, 2.93, 2.09, 9.82, repro,
2006-06-13,-4.96, -1.11, 6.45, 13.90, 7.82, 45.24, repro,
2006-06-15,-2.30, 2.17, 13.96, 6.67, 4.26, 18.54, repro,
2006-06-16,-0.01, 0.25, 6.85, 2.34, 1.63, 7.46, repro,
2006-06-17,0.11, 0.74, 0.62, 2.25, 1.58, 7.13, repro,
2006-06-18,-1.66, 0.88, 2.21, 2.28, 1.61, 7.29, repro,
2006-06-19,-1.25, -0.19, -1.31, 2.27, 1.63, 7.37, repro,
2006-06-20,-1.04, -0.11, 4.02, 2.29, 1.63, 7.40, repro,
2006-06-21,-0.33, -0.24, 2.70, 2.29, 1.62, 7.34, repro,
2006-06-22,-2.68, 0.67, -0.22, 2.29, 1.63, 7.40, repro,
2006-06-23,0.05, 0.01, -0.40, 2.28, 1.62, 7.31, repro,
2006-06-24,-0.97, 0.59, 0.80, 2.27, 1.62, 7.33, repro,
2006-06-25,-0.80, 0.60, -0.78, 2.28, 1.62, 7.36, repro,
2006-06-26,0.16, 0.15, 2.63, 2.28, 1.64, 7.40, repro,
2006-06-27,-0.50, -0.33, 5.62, 2.33, 1.70, 7.55, repro,
2006-06-28,1.63, -1.40, 4.22, 2.28, 1.62, 7.35, repro,
2006-06-29,-2.18, 0.69, 7.01, 2.20, 1.59, 7.19, repro,
2006-06-30,-1.95, 0.53, 12.55, 2.31, 1.64, 7.55, repro,
2006-07-01,-0.17, 0.47, 9.05, 2.27, 1.59, 7.38, repro,
2006-07-02,-0.47, 0.51, 3.47, 2.27, 1.64, 7.48, repro,
2006-07-03,-0.11, -0.95, 1.33, 2.24, 1.59, 7.28, repro,
2006-07-04,-1.21, -0.09, 9.52, 2.25, 1.59, 7.33, repro,
2006-07-05,-1.53, -0.64, 5.67, 2.25, 1.58, 7.28, repro,
2006-07-06,-0.14, -0.60, -0.97, 2.24, 1.59, 7.30, repro,
2006-07-07,0.81, 0.62, 0.06, 2.24, 1.59, 7.32, repro,
2006-07-08,0.52, -0.37, 1.28, 2.24, 1.59, 7.33, repro,
2006-07-09,-0.29, -0.86, 4.20, 2.23, 1.58, 7.24, repro,
2006-07-10,1.20, -0.02, -2.69, 2.24, 1.58, 7.27, repro,
2006-07-11,-0.86, -0.37, 8.53, 2.24, 1.58, 7.34, repro,
2006-07-12,0.07, 0.59, 12.46, 2.25, 1.60, 7.38, repro,
2006-07-13,-1.20, 1.33, 14.13, 2.28, 1.65, 7.57, repro,
2006-07-14,-0.64, -0.27, 4.50, 2.23, 1.59, 7.30, repro,
2006-07-15,0.14, 0.22, 5.12, 2.22, 1.57, 7.21, repro,
2006-07-16,0.26, 0.16, 3.50, 2.25, 1.59, 7.34, repro,
2006-07-17,-0.49, 1.86, 4.22, 2.28, 1.64, 7.53, repro,
2006-07-18,-1.62, 1.68, 10.35, 2.18, 1.56, 7.08, repro,
2006-07-19,2.36, -0.26, 1.71, 2.17, 1.55, 7.05, repro,
2006-07-20,0.25, 0.39, 2.05, 2.17, 1.54, 6.99, repro,
2006-07-21,0.74, 0.47, 8.65, 2.18, 1.55, 7.05, repro,
2006-07-22,1.13, -0.03, 12.00, 2.19, 1.56, 7.14, repro,
2006-07-23,0.70, 0.05, 11.77, 2.18, 1.56, 7.10, repro,
2006-07-24,-0.40, 0.27, 12.36, 2.17, 1.56, 7.07, repro,
2006-07-25,-0.53, -1.14, 7.18, 2.18, 1.55, 7.01, repro,
2006-07-26,1.53, -0.66, 11.69, 2.19, 1.54, 7.04, repro,
2006-07-27,-1.79, 0.96, 4.71, 2.17, 1.56, 7.08, repro,
2006-07-28,0.27, 0.23, 10.16, 2.18, 1.56, 7.10, repro,
2006-07-29,1.63, -0.27, 9.77, 2.17, 1.56, 7.06, repro,
2006-07-30,0.79, -0.37, 14.24, 2.21, 1.60, 7.18, repro,
2006-07-31,-1.12, -0.34, 11.20, 2.18, 1.54, 7.00, repro,
2006-08-01,0.98, 0.47, 7.86, 2.18, 1.55, 7.07, repro,
2006-08-02,-0.19, 0.30, 9.44, 2.21, 1.61, 7.29, repro,
2006-08-03,1.80, 0.12, 10.58, 2.20, 1.61, 7.28, repro,
2006-08-04,-0.00, 0.34, 5.45, 2.27, 1.64, 7.40, repro,
2006-08-05,-1.10, -1.15, 6.36, 2.27, 1.66, 7.43, repro,
2006-08-06,0.23, -0.11, 8.78, 2.22, 1.60, 7.32, repro,
2006-08-07,0.32, -0.32, 6.19, 2.22, 1.61, 7.34, repro,
2006-08-08,0.55, 1.73, 17.56, 2.20, 1.57, 7.18, repro,
2006-08-09,0.77, 0.10, 13.36, 2.16, 1.56, 7.07, repro,
2006-08-10,1.05, -0.06, 7.16, 2.19, 1.55, 7.08, repro,
2006-08-11,-0.84, 0.12, 10.90, 2.17, 1.54, 7.04, repro,
2006-08-12,0.54, 0.99, 8.95, 2.18, 1.56, 7.12, repro,
2006-08-13,-0.01, -0.07, 12.61, 2.19, 1.57, 7.16, repro,
2006-08-14,-0.30, 0.67, 12.33, 2.22, 1.62, 7.25, repro,
2006-08-15,-1.35, -0.26, 13.58, 2.25, 1.58, 7.18, repro,
2006-08-16,-1.11, 0.28, 14.13, 2.17, 1.55, 7.02, repro,
2006-08-17,-0.43, 0.64, 11.05, 2.18, 1.55, 7.06, repro,
2006-08-18,1.09, 2.11, 9.05, 2.22, 1.61, 7.24, repro,
2006-08-19,0.83, 0.11, 10.65, 2.18, 1.56, 7.09, repro,
2006-08-20,0.05, 0.39, 16.17, 2.16, 1.56, 7.03, repro,
2006-08-21,0.24, -0.25, 12.47, 2.19, 1.58, 7.14, repro,
2006-08-22,-0.84, 0.04, 13.99, 2.19, 1.57, 7.11, repro,
2006-08-23,0.30, 0.60, 15.24, 2.19, 1.58, 7.16, repro,
2006-08-24,-0.59, 1.37, 17.41, 2.18, 1.58, 7.14, repro,
2006-08-25,-0.43, 0.26, 21.33, 2.22, 1.62, 7.31, repro,
2006-08-26,-0.06, -0.10, 15.35, 2.25, 1.66, 7.52, repro,
2006-08-27,-0.10, 0.15, 11.34, 2.28, 1.68, 7.59, repro,
2006-08-28,0.32, -0.47, 14.77, 2.27, 1.67, 7.56, repro,
2006-08-29,1.43, -0.32, 14.49, 2.27, 1.68, 7.56, repro,
2006-08-30,0.31, 0.00, 14.52, 2.24, 1.66, 7.46, repro,
2006-08-31,0.40, 0.25, 9.67, 2.26, 1.68, 7.54, repro,
2006-09-01,-0.08, 0.16, 10.13, 2.26, 1.67, 7.53, repro,
2006-09-02,0.97, 1.01, 10.87, 2.28, 1.67, 7.55, repro,
2006-09-03,1.62, 0.47, 16.54, 2.29, 1.68, 7.63, repro,
2006-09-04,1.46, -0.12, 9.36, 2.33, 1.69, 7.66, repro,
2006-09-05,0.87, -0.09, 7.44, 2.33, 1.70, 7.70, repro,
2006-09-06,-0.27, -0.24, 6.28, 2.27, 1.67, 7.55, repro,
2006-09-07,0.33, 0.06, 11.66, 2.32, 1.71, 7.79, repro,
2006-09-08,1.72, 0.29, 15.29, 2.31, 1.71, 7.85, repro,
2006-09-09,-0.21, 0.37, 15.40, 2.22, 1.62, 7.33, repro,
2006-09-10,-0.02, 0.20, 15.50, 2.21, 1.62, 7.34, repro,
2006-09-11,-0.76, -0.37, 15.17, 2.23, 1.63, 7.37, repro,
2006-09-12,-0.36, -0.55, 9.72, 2.23, 1.62, 7.33, repro,
2006-09-13,1.77, 0.19, 10.56, 2.23, 1.61, 7.31, repro,
2006-09-14,1.94, -3.75, 21.14, 2.42, 1.77, 7.98, repro,
2006-09-15,0.98, 0.24, 15.96, 2.25, 1.61, 7.29, repro,
2006-09-16,-0.87, -0.38, 12.10, 2.17, 1.58, 7.16, repro,
2006-09-17,0.46, -0.12, 14.57, 2.19, 1.57, 7.15, repro,
2006-09-18,0.96, -0.86, 17.56, 2.26, 1.65, 7.60, repro,
2006-09-19,-0.90, -0.30, 18.87, 2.17, 1.57, 7.17, repro,
2006-09-20,0.11, 0.49, 12.91, 2.18, 1.58, 7.20, repro,
2006-09-21,-1.95, 0.77, 20.45, 2.23, 1.64, 7.39, repro,
2006-09-22,-0.03, -0.76, 11.12, 2.28, 1.66, 7.45, repro,
2006-09-23,-1.08, 0.30, 14.75, 2.22, 1.60, 7.25, repro,
2006-09-24,0.38, -0.00, 10.32, 2.24, 1.61, 7.32, repro,
2006-09-25,0.94, 0.07, 15.86, 2.18, 1.58, 7.14, repro,
2006-09-26,0.11, 0.45, 8.95, 2.20, 1.60, 7.24, repro,
2006-09-27,0.06, 0.25, 10.60, 2.19, 1.59, 7.19, repro,
2006-09-28,0.03, -0.49, 14.08, 2.18, 1.59, 7.14, repro,
2006-09-29,-0.14, -0.28, 18.78, 2.19, 1.60, 7.23, repro,
2006-09-30,0.14, -0.99, 23.88, 2.21, 1.63, 7.43, repro,
2006-10-01,-0.09, 0.65, 15.12, 2.24, 1.63, 7.47, repro,
2006-10-02,-1.57, 0.14, 11.36, 2.27, 1.67, 7.41, repro,
2006-10-03,0.39, 0.35, 9.92, 2.30, 1.69, 7.61, repro,
2006-10-04,-0.30, -0.40, 16.91, 2.20, 1.58, 7.19, repro,
2006-10-05,-0.48, 0.52, 17.24, 2.20, 1.58, 7.20, repro,
2006-10-06,0.09, 0.90, 15.22, 2.22, 1.59, 7.24, repro,
2006-10-07,-0.10, -0.15, 6.40, 2.31, 1.68, 7.62, repro,
2006-10-08,0.31, 0.66, 8.70, 2.25, 1.64, 7.37, repro,
2006-10-09,1.04, -0.35, 6.90, 2.23, 1.64, 7.29, repro,
2006-10-10,0.77, 0.06, 15.45, 2.25, 1.64, 7.46, repro,
2006-10-11,-0.02, 0.74, 13.23, 2.26, 1.63, 7.45, repro,
2006-10-12,-0.45, 0.20, 15.38, 2.23, 1.61, 7.26, repro,
2006-10-13,-0.93, -0.37, 17.08, 2.19, 1.58, 7.12, repro,
2006-10-14,1.52, -0.02, 20.48, 2.21, 1.62, 7.25, repro,
2006-10-15,1.11, -0.36, 26.68, 2.20, 1.63, 7.29, repro,
2006-10-16,-1.34, -0.97, 37.67, 2.20, 1.60, 7.31, repro,
2006-10-17,-0.02, 0.88, 17.65, 2.34, 1.66, 7.75, repro,
2006-10-18,-1.31, -0.06, 14.69, 2.17, 1.58, 7.12, repro,
2006-10-19,-1.57, 1.40, 15.77, 2.46, 1.74, 7.91, repro,
2006-10-20,0.83, 0.27, 17.62, 2.41, 1.75, 8.26, repro,
2006-10-21,0.56, 0.45, 9.81, 2.48, 1.78, 8.35, repro,
2006-10-22,0.09, 1.13, 14.42, 2.38, 1.70, 7.88, repro,
2006-10-23,-0.96, -0.05, 7.89, 2.32, 1.68, 7.66, repro,
2006-10-24,-0.07, -0.18, 13.59, 2.40, 1.68, 7.82, repro,
2006-10-25,0.67, 1.27, 12.66, 2.49, 1.80, 8.04, repro,
2006-10-26,0.95, 0.84, 10.26, 2.22, 1.65, 7.48, repro,
2006-10-27,-0.12, 0.02, 6.34, 2.19, 1.61, 7.23, repro,
2006-10-28,-1.17, 1.14, 7.55, 2.38, 1.70, 7.75, repro,
2006-10-29,-0.90, 0.41, 8.80, 2.18, 1.60, 7.30, repro,
2006-10-30,1.12, 0.45, 11.95, 2.13, 1.57, 7.06, repro,
2006-10-31,1.35, 0.84, 14.66, 2.16, 1.60, 7.23, repro,
2006-11-01,0.12, 0.13, 16.40, 2.30, 1.65, 7.64, repro,
2006-11-02,0.37, -0.22, 18.47, 2.19, 1.59, 7.26, repro,
2006-11-03,-1.62, 1.92, 15.01, 2.21, 1.63, 7.33, repro,
2006-11-04,-1.75, 0.16, 13.32, 2.25, 1.65, 7.40, repro,
2006-11-05,2.03, 0.74, 10.43, 2.23, 1.63, 7.32, repro,
2006-11-06,-0.14, 1.30, 11.99, 2.15, 1.58, 7.18, repro,
2006-11-07,-0.52, 1.61, 13.49, 2.36, 1.71, 7.67, repro,
2006-11-08,0.60, -0.48, 5.36, 2.30, 1.65, 7.45, repro,
2006-11-09,0.36, 0.53, 14.97, 2.34, 1.71, 7.66, repro,
2006-11-10,0.92, 0.76, 6.32, 2.23, 1.60, 7.22, repro,
2006-11-11,0.85, 0.39, 8.68, 2.27, 1.64, 7.40, repro,
2006-11-12,-0.46, 0.34, 6.23, 2.37, 1.69, 7.56, repro,
2006-11-13,-0.36, 1.23, 16.47, 2.31, 1.65, 7.38, repro,
2006-11-14,1.63, 0.12, 9.45, 2.17, 1.57, 7.13, repro,
2006-11-15,0.71, 1.55, 16.48, 2.15, 1.59, 7.16, repro,
2006-11-16,1.03, 0.21, 5.58, 2.21, 1.59, 7.24, repro,
2006-11-17,0.17, -0.05, 5.66, 2.13, 1.57, 7.05, repro,
2006-11-18,0.44, 0.22, 2.30, 2.15, 1.57, 7.10, repro,
2006-11-19,-0.27, 1.84, 8.38, 2.16, 1.58, 7.17, repro,
2006-11-20,0.89, 1.97, 0.95, 2.16, 1.59, 7.18, repro,
2006-11-21,0.70, 0.09, 14.79, 2.13, 1.57, 7.05, repro,
2006-11-22,0.76, -0.10, 12.78, 2.12, 1.58, 7.05, repro,
2006-11-23,0.69, 1.82, 3.03, 2.19, 1.62, 7.26, repro,
2006-11-24,-0.77, 0.57, 0.65, 2.17, 1.62, 7.27, repro,
2006-11-25,0.76, -0.11, 1.51, 2.15, 1.59, 7.13, repro,
2006-11-26,-0.09, -0.13, 4.11, 2.18, 1.61, 7.20, repro,
2006-11-27,0.52, -0.07, 6.33, 2.17, 1.59, 7.08, repro,
2006-11-28,-0.41, 0.97, 5.53, 2.15, 1.59, 7.09, repro,
2006-11-29,-0.08, 0.73, 1.44, 2.14, 1.57, 7.08, repro,
2006-11-30,1.16, 1.72, -4.07, 2.15, 1.59, 7.14, repro,
2006-12-01,-0.34, 1.86, -4.62, 2.15, 1.59, 7.14, repro,
2006-12-02,-0.13, 1.28, -6.23, 2.15, 1.59, 7.10, repro,
2006-12-03,0.29, 1.07, 2.80, 2.13, 1.57, 6.98, repro,
2006-12-04,-0.05, 1.46, -7.37, 2.19, 1.60, 7.15, repro,
2006-12-05,1.38, 1.17, 0.24, 2.18, 1.63, 7.28, repro,
2006-12-06,0.10, 0.39, -2.15, 2.20, 1.64, 7.33, repro,
2006-12-07,-0.19, 1.04, 0.05, 2.18, 1.65, 7.34, repro,
2006-12-08,-0.74, 1.32, 7.80, 2.19, 1.65, 7.31, repro,
2006-12-09,0.60, 0.36, 6.95, 2.24, 1.70, 7.44, repro,
2006-12-10,0.38, 0.19, 5.84, 2.21, 1.64, 7.29, repro,
2006-12-11,-0.34, 0.73, 4.21, 2.14, 1.59, 7.10, repro,
2006-12-12,2.75, 2.21, 1.47, 2.21, 1.67, 7.40, repro,
2006-12-13,0.56, 0.81, 3.67, 2.16, 1.65, 7.28, repro,
2006-12-14,0.01, 0.24, 9.74, 2.11, 1.58, 6.99, repro,
2006-12-15,0.52, 0.91, 11.82, 2.27, 1.72, 7.65, repro,
2006-12-16,1.19, 0.19, 3.43, 2.24, 1.70, 7.42, repro,
2006-12-17,0.60, 0.58, 0.97, 2.24, 1.75, 7.75, repro,
2006-12-18,1.09, 1.59, 0.49, 2.43, 1.86, 8.36, repro,
2006-12-19,1.79, 0.27, 1.03, 2.22, 1.73, 7.58, repro,
2006-12-20,0.45, 0.65, 3.28, 2.28, 1.74, 7.57, repro,
2006-12-21,0.59, 1.56, 2.86, 2.16, 1.69, 7.39, repro,
2006-12-22,0.82, 0.89, -1.17, 2.27, 1.80, 7.96, repro,
2006-12-23,1.03, 1.09, -2.96, 2.22, 1.76, 7.71, repro,
2006-12-24,1.02, 0.84, -3.23, 2.13, 1.59, 7.03, repro,
2006-12-25,-0.57, 1.46, -1.21, 2.17, 1.69, 7.34, repro,
2006-12-26,1.65, -0.14, 3.53, 2.20, 1.69, 7.42, repro,
2006-12-27,1.30, 0.22, 9.72, 2.25, 1.73, 7.60, repro,
2006-12-28,0.96, 1.19, -5.58, 2.30, 1.86, 8.06, repro,
2006-12-29,0.42, -1.23, -15.90, 2.20, 1.66, 7.36, repro,
2006-12-30,0.95, 1.24, -2.74, 2.25, 1.72, 7.49, repro,
2006-12-31,1.42, 0.73, -0.01, 2.38, 1.86, 8.14, repro,
2007-01-01,-0.01, 1.27, -1.83, 2.30, 1.79, 7.85, repro,
2007-01-02,-0.04, 2.91, 8.02, 2.29, 1.79, 7.83, repro,
2007-01-03,-0.47, -0.70, 9.88, 2.14, 1.64, 7.24, repro,
2007-01-04,0.44, 0.18, 5.63, 2.16, 1.67, 7.29, repro,
2007-01-05,0.23, 0.13, -2.88, 2.14, 1.65, 7.18, repro,
2007-01-06,0.78, 0.70, -2.25, 2.21, 1.73, 7.56, repro,
2007-01-07,0.89, 1.33, -1.23, 2.18, 1.62, 7.16, repro,
2007-01-08,-0.21, 1.02, -5.86, 2.20, 1.66, 7.33, repro,
2007-01-09,-0.76, 2.00, -4.98, 2.17, 1.63, 7.20, repro,
2007-01-10,-0.68, 0.90, 2.80, 2.19, 1.59, 7.04, repro,
2007-01-11,-0.20, -0.39, -2.73, 2.24, 1.62, 7.21, repro,
2007-01-12,0.97, 0.99, -8.26, 2.16, 1.58, 7.06, repro,
2007-01-13,1.33, 0.67, -11.01, 2.11, 1.55, 6.93, repro,
2007-01-14,0.43, 0.96, -12.88, 2.10, 1.55, 6.91, repro,
2007-01-15,1.14, 1.36, -11.77, 2.09, 1.54, 6.86, repro,
2007-01-16,0.41, 1.43, -6.12, 2.13, 1.55, 6.88, repro,
2007-01-17,0.81, 1.06, -6.55, 2.14, 1.60, 7.08, repro,
2007-01-18,1.23, 1.24, -16.15, 2.18, 1.64, 7.24, repro,
2007-01-19,1.07, 1.21, -4.56, 2.15, 1.57, 7.11, repro,
2007-01-20,-0.46, 0.69, -3.37, 2.20, 1.63, 7.22, repro,
2007-01-21,0.53, 1.88, -4.13, 2.08, 1.53, 6.77, repro,
2007-01-22,0.58, 1.81, -4.17, 2.11, 1.55, 6.90, repro,
2007-01-23,0.44, 0.66, -5.37, 2.12, 1.55, 6.90, repro,
2007-01-24,0.15, 1.98, -7.73, 2.10, 1.55, 6.91, repro,
2007-01-25,-0.15, 1.36, -8.83, 2.15, 1.59, 6.98, repro,
2007-01-26,0.92, 1.41, -5.35, 2.09, 1.54, 6.80, repro,
2007-01-27,0.59, 1.86, -7.49, 2.10, 1.54, 6.84, repro,
2007-01-28,0.56, 1.15, -7.83, 2.11, 1.54, 6.84, repro,
2007-01-29,1.39, 1.63, -8.51, 2.09, 1.55, 6.86, repro,
2007-01-30,1.60, 0.94, -1.98, 2.09, 1.55, 6.84, repro,
2007-01-31,0.02, 1.31, 3.31, 2.08, 1.54, 6.78, repro,
2007-02-01,0.19, 2.05, -2.28, 2.14, 1.58, 6.96, repro,
2007-02-02,1.00, 2.10, -4.50, 2.14, 1.57, 6.99, repro,
2007-02-03,0.97, 1.39, -6.32, 2.14, 1.56, 6.97, repro,
2007-02-04,-0.06, 2.43, -0.41, 2.09, 1.55, 6.85, repro,
2007-02-05,0.68, 1.54, -6.67, 2.10, 1.55, 6.84, repro,
2007-02-06,1.19, 0.53, -6.92, 2.09, 1.54, 6.79, repro,
2007-02-07,1.23, 0.75, -3.23, 2.11, 1.55, 6.83, repro,
2007-02-08,0.99, 1.52, -6.65, 2.13, 1.61, 7.02, repro,
2007-02-09,0.68, 2.66, -2.62, 2.11, 1.60, 6.97, repro,
2007-02-10,-0.09, 2.56, 2.19, 2.11, 1.56, 6.90, repro,
2007-02-11,1.45, 1.36, 5.52, 2.10, 1.55, 6.83, repro,
2007-02-12,1.47, 1.33, -5.63, 2.09, 1.54, 6.79, repro,
2007-02-13,1.12, 1.89, -4.97, 2.10, 1.55, 6.86, repro,
2007-02-14,0.59, 1.89, -4.65, 2.09, 1.54, 6.81, repro,
2007-02-15,0.24, 2.85, 0.21, 2.10, 1.56, 6.88, repro,
2007-02-16,-0.83, 1.85, 2.03, 2.12, 1.56, 6.90, repro,
2007-02-17,0.56, 1.74, 0.88, 2.13, 1.58, 6.98, repro,
2007-02-18,0.17, 1.91, 2.96, 2.12, 1.55, 6.92, repro,
2007-02-19,-0.82, 0.76, 5.25, 2.08, 1.55, 6.83, repro,
2007-02-20,0.33, 1.29, 10.40, 2.10, 1.55, 6.87, repro,
2007-02-21,0.54, 1.38, -0.06, 2.11, 1.56, 6.89, repro,
2007-02-22,1.46, 1.52, 2.33, 2.10, 1.55, 6.87, repro,
2007-02-23,1.24, 1.62, -0.76, 2.21, 1.64, 7.22, repro,
2007-02-24,-0.06, 1.30, 0.32, 2.10, 1.55, 6.82, repro,
2007-02-25,0.08, 0.34, 5.91, 2.09, 1.54, 6.81, repro,
2007-02-26,0.59, 0.33, 5.17, 2.11, 1.56, 6.89, repro,
2007-02-27,1.33, 2.78, 1.27, 2.10, 1.55, 6.85, repro,
2007-02-28,0.67, 1.75, 5.89, 2.11, 1.55, 6.84, repro,
2007-03-01,-1.62, 1.62, -2.77, 2.17, 1.61, 7.07, repro,
2007-03-02,-0.02, 1.38, -5.79, 2.17, 1.62, 7.08, repro,
2007-03-03,0.71, 1.55, -6.29, 2.16, 1.60, 7.03, repro,
2007-03-04,0.98, 2.25, -8.51, 2.15, 1.59, 7.03, repro,
2007-03-05,0.48, 1.99, -4.89, 2.14, 1.59, 7.00, repro,
2007-03-06,-0.79, 0.74, -2.91, 2.17, 1.60, 7.08, repro,
2007-03-07,0.42, 1.71, 1.15, 2.15, 1.59, 6.98, repro,
2007-03-08,0.42, 2.29, -0.53, 2.16, 1.59, 6.99, repro,
2007-03-09,1.11, 1.74, 3.35, 2.17, 1.59, 7.05, repro,
2007-03-10,0.43, 1.52, -0.72, 2.25, 1.61, 7.19, repro,
2007-03-11,0.85, 1.82, -3.48, 2.15, 1.59, 7.02, repro,
2007-03-12,0.25, 1.00, -1.41, 2.16, 1.58, 6.98, repro,
2007-03-13,0.40, 1.51, 2.12, 2.11, 1.54, 6.86, repro,
2007-03-14,1.17, 2.20, -1.70, 2.13, 1.56, 6.92, repro,
2007-03-15,0.88, 1.43, -9.02, 2.16, 1.57, 6.95, repro,
2007-03-16,-0.49, 1.95, -3.95, 2.16, 1.57, 6.96, repro,
2007-03-17,0.77, 1.76, 0.43, 2.12, 1.55, 6.85, repro,
2007-03-18,0.06, 2.34, 2.75, 2.12, 1.54, 6.83, repro,
2007-03-19,-1.40, 1.36, 3.56, 2.13, 1.56, 6.92, repro,
2007-03-20,0.57, 1.86, -0.96, 2.22, 1.57, 6.92, repro,
2007-03-21,0.80, 1.60, 2.24, 2.22, 1.58, 6.95, repro,
2007-03-22,-0.37, 1.30, 7.70, 2.13, 1.55, 6.87, repro,
2007-03-23,0.12, 1.27, -0.28, 2.16, 1.58, 7.03, repro,
2007-03-24,-0.34, 1.70, 2.77, 2.13, 1.55, 6.86, repro,
2007-03-25,-0.37, 1.62, 6.14, 2.13, 1.55, 6.87, repro,
2007-03-26,0.40, 0.94, -0.69, 2.14, 1.54, 6.82, repro,
2007-03-27,0.24, 1.41, 3.31, 2.16, 1.55, 6.87, repro,
2007-03-28,0.74, 1.54, -5.88, 2.17, 1.57, 6.98, repro,
2007-03-29,-0.44, 2.39, -6.91, 2.14, 1.55, 6.92, repro,
2007-03-30,1.41, 2.58, -4.89, 2.13, 1.55, 6.87, repro,
2007-03-31,0.68, 1.25, 0.19, 2.14, 1.55, 6.87, repro,
2007-04-01,0.24, 1.05, -0.86, 2.11, 1.54, 6.77, repro,
2007-04-02,1.15, 1.06, 0.27, 2.11, 1.54, 6.76, repro,
2007-04-03,0.98, 1.09, -5.66, 2.16, 1.59, 7.01, repro,
2007-04-04,1.47, 1.65, -8.56, 2.18, 1.58, 7.01, repro,
2007-04-05,-0.01, 1.81, -6.78, 2.21, 1.63, 7.14, repro,
2007-04-06,1.26, 2.63, -3.83, 2.15, 1.57, 6.90, repro,
2007-04-07,1.22, 2.32, 4.37, 2.15, 1.57, 6.89, repro,
2007-04-08,1.11, 1.81, -2.47, 2.14, 1.54, 6.84, repro,
2007-04-09,1.33, 1.28, 0.35, 2.16, 1.55, 6.92, repro,
2007-04-10,-0.08, 1.82, 3.24, 2.18, 1.57, 7.01, repro,
2007-04-11,0.43, 2.10, 4.85, 2.13, 1.53, 6.81, repro,
2007-04-12,1.30, 1.71, 6.22, 2.11, 1.54, 6.79, repro,
2007-04-13,1.54, 2.58, -1.90, 2.12, 1.53, 6.79, repro,
2007-04-14,-0.01, 2.29, 6.47, 2.13, 1.54, 6.83, repro,
2007-04-15,-0.48, 1.93, -0.94, 2.16, 1.54, 6.89, repro,
2007-04-16,-1.33, 2.30, 3.00, 2.14, 1.54, 6.87, repro,
2007-04-17,-0.76, 1.06, -3.77, 2.13, 1.54, 6.81, repro,
2007-04-18,1.22, 1.60, 1.02, 2.14, 1.54, 6.86, repro,
2007-04-19,0.71, 1.04, -0.64, 2.15, 1.54, 6.85, repro,
2007-04-20,0.13, 0.74, 7.05, 2.14, 1.54, 6.85, repro,
2007-04-21,0.50, 1.28, 3.18, 2.14, 1.54, 6.88, repro,
2007-04-22,0.36, 1.73, 5.19, 2.13, 1.54, 6.82, repro,
2007-04-23,1.79, 1.71, -0.62, 2.16, 1.56, 6.94, repro,
2007-04-24,0.72, 1.32, -7.50, 2.17, 1.56, 6.95, repro,
2007-04-25,0.86, 1.96, -3.03, 2.18, 1.55, 6.95, repro,
2007-04-26,0.23, 1.71, 1.91, 2.14, 1.54, 6.87, repro,
2007-04-27,-0.10, 2.30, 3.42, 2.15, 1.54, 6.90, repro,
2007-04-28,0.25, 2.25, -2.62, 2.14, 1.54, 6.89, repro,
2007-04-29,0.84, 2.08, 4.15, 2.15, 1.53, 6.93, repro,
2007-04-30,1.24, 1.30, 0.14, 2.14, 1.53, 6.86, repro,
2007-05-01,2.08, 2.29, 1.75, 2.13, 1.53, 6.83, repro,
2007-05-02,2.23, 1.77, -1.62, 2.22, 1.56, 7.10, repro,
2007-05-03,0.42, 1.89, 1.16, 2.28, 1.61, 7.31, repro,
2007-05-04,0.87, 2.05, -4.54, 2.15, 1.53, 6.89, repro,
2007-05-05,0.56, 0.41, -0.96, 2.20, 1.58, 7.10, repro,
2007-05-06,0.96, 1.52, -2.89, 2.16, 1.54, 6.90, repro,
2007-05-07,1.07, 2.70, -5.07, 2.15, 1.53, 6.88, repro,
2007-05-08,0.70, 2.57, 0.38, 2.16, 1.52, 6.86, repro,
2007-05-09,0.60, 1.94, -5.21, 2.16, 1.52, 6.87, repro,
2007-05-10,-0.11, 1.47, -8.13, 2.26, 1.60, 7.31, repro,
2007-05-11,1.41, 1.66, -6.42, 2.25, 1.60, 7.31, repro,
2007-05-12,0.81, 2.53, -0.20, 2.16, 1.54, 6.93, repro,
2007-05-13,0.93, 2.21, -4.20, 2.20, 1.57, 7.02, repro,
2007-05-14,0.50, 2.55, -7.32, 2.19, 1.55, 7.00, repro,
2007-05-15,0.08, 2.23, -5.20, 2.17, 1.53, 6.92, repro,
2007-05-16,0.19, 1.25, -4.09, 2.22, 1.56, 7.11, repro,
2007-05-17,0.83, 1.93, -2.60, 2.18, 1.57, 7.07, repro,
2007-05-18,2.04, 1.40, -0.06, 2.22, 1.61, 7.17, repro,
2007-05-19,0.21, 2.19, -4.51, 2.20, 1.58, 7.06, repro,
2007-05-20,0.68, 2.41, -1.33, 2.21, 1.58, 7.05, repro,
2007-05-21,1.29, 2.33, -5.86, 2.29, 1.70, 7.57, repro,
2007-05-22,0.42, 1.47, -1.66, 2.16, 1.54, 6.92, repro,
2007-05-23,0.90, 2.73, -2.21, 2.15, 1.54, 6.90, repro,
2007-05-24,0.50, 1.57, -2.83, 2.23, 1.60, 7.13, repro,
2007-05-25,0.21, 1.99, -1.15, 2.17, 1.53, 6.92, repro,
2007-05-26,1.32, 2.22, -1.86, 2.22, 1.57, 7.03, repro,
2007-05-27,0.39, 1.33, -0.39, 2.17, 1.53, 6.89, repro,
2007-05-28,0.70, 2.00, 0.33, 2.16, 1.54, 6.89, repro,
2007-05-29,0.87, 1.85, -2.61, 2.16, 1.53, 6.90, repro,
2007-05-30,0.97, 2.22, -0.93, 2.21, 1.54, 6.95, repro,
2007-05-31,0.52, 1.41, -3.24, 2.20, 1.57, 6.96, repro,
2007-06-01,0.54, 2.54, -2.39, 2.16, 1.53, 6.85, repro,
2007-06-02,-0.18, 1.56, -1.41, 2.17, 1.54, 6.89, repro,
2007-06-03,1.15, 2.21, -2.19, 2.15, 1.53, 6.85, repro,
2007-06-04,1.88, 2.04, 0.07, 2.20, 1.59, 7.14, repro,
2007-06-05,0.66, 1.58, 5.87, 2.20, 1.54, 7.00, repro,
2007-06-06,-0.29, 1.65, 7.51, 2.14, 1.52, 6.80, repro,
2007-06-07,0.41, 0.88, 4.81, 2.15, 1.53, 6.83, repro,
2007-06-08,0.12, 1.58, 2.24, 2.15, 1.53, 6.85, repro,
2007-06-09,-0.23, 1.23, 1.02, 2.16, 1.54, 6.89, repro,
2007-06-10,1.93, 1.78, -4.98, 2.15, 1.54, 6.90, repro,
2007-06-11,1.15, 1.68, 3.33, 2.16, 1.56, 6.92, repro,
2007-06-12,-0.41, 1.73, -2.84, 2.17, 1.57, 6.94, repro,
2007-06-13,0.43, 1.00, -3.81, 2.22, 1.59, 7.06, repro,
2007-06-14,0.48, 1.10, -5.06, 2.20, 1.58, 7.01, repro,
2007-06-15,1.42, 1.06, -3.24, 2.15, 1.54, 6.87, repro,
2007-06-16,1.08, 0.08, -0.97, 2.14, 1.53, 6.83, repro,
2007-06-17,1.30, 0.66, -0.32, 2.13, 1.52, 6.77, repro,
2007-06-18,1.15, 1.62, 3.64, 2.17, 1.54, 6.87, repro,
2007-06-19,0.56, 0.87, -1.57, 2.17, 1.54, 6.89, repro,
2007-06-20,0.45, 0.86, -7.19, 2.16, 1.53, 6.89, repro,
2007-06-21,0.52, 0.89, -1.10, 2.15, 1.55, 6.94, repro,
2007-06-22,0.86, 0.24, -3.51, 2.15, 1.54, 6.86, repro,
2007-06-23,0.83, 0.43, -1.64, 2.14, 1.53, 6.79, repro,
2007-06-24,-0.68, 0.24, 9.49, 2.20, 1.59, 7.07, repro,
2007-06-25,1.11, 0.27, -6.16, 2.15, 1.53, 6.84, repro,
2007-06-26,-0.45, -0.44, -9.67, 2.14, 1.53, 6.85, repro,
2007-06-27,0.32, -0.45, -4.85, 2.15, 1.54, 6.93, repro,
2007-06-28,-0.45, -0.60, -0.58, 2.20, 1.58, 7.04, repro,
2007-06-29,-1.53, -2.27, -1.19, 2.22, 1.58, 7.05, repro,
2007-06-30,1.17, -1.57, -0.19, 2.16, 1.53, 6.88, repro,
2007-07-01,0.27, -0.80, -3.35, 2.15, 1.53, 6.89, repro,
2007-07-02,-1.80, -1.87, -0.87, 2.15, 1.54, 6.91, repro,
2007-07-03,-1.60, -0.81, -2.95, 2.15, 1.53, 6.87, repro,
2007-07-04,0.42, -0.70, -0.95, 2.15, 1.54, 6.86, repro,
2007-07-05,-0.37, -1.08, 1.01, 2.15, 1.52, 6.81, repro,
2007-07-06,-0.59, -0.86, -4.43, 2.15, 1.53, 6.84, repro,
2007-07-07,-0.59, -0.03, -3.84, 2.17, 1.54, 6.91, repro,
2007-07-08,-1.08, -0.96, 1.06, 2.16, 1.54, 6.90, repro,
2007-07-09,-0.51, -0.67, -1.99, 2.14, 1.54, 6.82, repro,
2007-07-10,-0.47, -0.56, 0.32, 2.15, 1.55, 6.89, repro,
2007-07-11,0.83, -1.17, 1.75, 2.13, 1.53, 6.80, repro,
2007-07-12,-0.31, -0.63, 0.31, 2.17, 1.54, 6.90, repro,
2007-07-13,-1.13, -1.27, -0.77, 2.26, 1.63, 7.29, repro,
2007-07-14,-1.07, -1.49, 6.13, 2.20, 1.59, 7.13, repro,
2007-07-15,0.39, -1.22, 14.01, 2.16, 1.55, 6.92, repro,
2007-07-16,0.61, -1.01, 8.92, 2.13, 1.54, 6.82, repro,
2007-07-17,-1.16, -1.44, 5.62, 2.14, 1.54, 6.82, repro,
2007-07-18,-0.11, -1.49, 0.51, 2.21, 1.58, 7.05, repro,